Zurück zum Katalog

STARLINK-11292

AktivKommunikationVLEO
NORAD 61203·PAYLOAD·🇺🇸 United States

Gestartet Sep 20, 2024 von Vandenberg Space Force Base

Loading…

Nächste Überflüge (nächste 24 Stunden)

TLE

AktuellSource: CelesTrak SupGP

Epoche: Sep 15, 2026, 02:24 UTC

1 61203C 24171D   26258.10048611  .00012847  00000+0  10583-3 0  2580
2 61203  53.1562 322.5536 0001188  78.0900  64.4942 15.69701752    17

Verfolge STARLINK-11292 in Echtzeit mit AllMySat

Download on the App Store